[[{"header":{"parameterUnit":"m.s-1","parameterCategory":1,"la1":30.2991,"la2":30.254,"lo1":-89.0895,"lo2":-89.0444,"dy":0.0017,"dx":0.0017,"nx":28,"ny":28,"refTime":"2026-02-16T03:00:00:Z","depth":0,"parameterNumber":2,"parameterNumberName":"U-component_of_WINDS"},"data":[0,0,0,0,0,0,0,0,0,0,0,0,0,0,0,0,0,0,0,0,0,0,0,0,0,0,0,0,0,0,0,0,0,0,0,0,0,0,0,0,0,0,0,0,0,0,0,0,0,0,0,0,0,0,0,0,0,0,0.0932,0.0933,0,0.0955,0.0955,0.0955,0.0973,0.0973,0.0973,0.0973,0.0997,0.0997,0.0998,0,0,0,0,0,0,0,0,0,0,0,0,0,0.0906,0.0907,0.0932,0.0933,0.0933,0.0955,0.0955,0.0955,0.0973,0.0973,0.0973,0.0973,0.0997,0.0997,0.0998,0,0,0,0,0,0,0,0,0,0,0,0,0,0.0922,0.0907,0.0932,0.0944,0.0945,0.0955,0.0955,0.0956,0.0973,0.0973,0.0973,0.0973,0.0997,0.0997,0.0998,0.0997,0,0,0.1,0.1001,0,0,0,0,0,0,0,0,0.0921,0.0923,0.0942,0.0943,0.0945,0.0961,0.0955,0.097,0.0973,0.0962,0.0973,0.0974,0.0985,0.0987,0.099,0.0999,0.1,0.1,0.1001,0.1001,0.1001,0,0,0,0,0,0,0,0.092,0.0922,0.0941,0.0942,0.0944,0.0949,0.0952,0.0958,0.0972,0.0963,0.0965,0.0967,0.0986,0.099,0.0991,0.1,0.1,0.1001,0.1001,0.1002,0.1011,0.1011,0,0,0,0,0,0,0.0917,0.0921,0.0941,0.0942,0.0933,0.0949,0.0952,0.0956,0.0972,0.0975,0.0967,0.0968,0.0988,0.099,0.0992,0.0994,0.1001,0.1002,0.1002,0.1011,0.1011,0.1011,0,0,0,0,0,0,0.0916,0.0918,0.094,0.0932,0.0935,0.0949,0.0953,0.0956,0.096,0.0975,0.0977,0.0968,0.0989,0.0991,0.0996,0.0995,0.1002,0.1003,0.1012,0.1011,0.1011,0.0996,0,0,0,0,0,0,0.0915,0.0918,0.0917,0.0932,0.0935,0.0943,0.0953,0.0956,0.0961,0.0963,0.0976,0.0979,0.0989,0.0995,0.0997,0.0996,0.1003,0.1012,0.1011,0.1011,0.0997,0.0995,0.0994,0,0,0,0,0,0.0914,0.0912,0.0917,0.0919,0.0935,0.0943,0.0945,0.0956,0.0961,0.0961,0.0971,0.0979,0.0995,0.0996,0.0998,0.0997,0.1012,0.1012,0.1011,0.0997,0.0995,0.0994,0,0,0,0,0,0,0.0897,0.0914,0.092,0.0922,0.0931,0.0946,0.0946,0.0954,0.0961,0.0962,0.0976,0.0979,0.0984,0.0991,0.0992,0.0998,0.1004,0.1004,0.0993,0.0992,0.099,0.0988,0.1004,0,0,0,0,0,0.0893,0.0898,0.0913,0.0913,0.0917,0.0931,0.0935,0.0943,0.0953,0.0956,0.0967,0.0976,0.0984,0.0988,0.0995,0.0998,0.1002,0.0999,0.0997,0.0996,0.0996,0.0999,0.0998,0.101,0.101,0.101,0,0,0.0885,0.0896,0.0897,0.091,0.0918,0.0923,0.0934,0.0939,0.0943,0.0957,0.0963,0.0971,0.0983,0.0987,0.099,0.0993,0.0994,0.0996,0.0994,0.0995,0.0999,0.0998,0.0997,0.1009,0.1009,0.101,0,0,0.0874,0.0882,0.0884,0.0892,0.0904,0.0913,0.0914,0.0928,0.0934,0.094,0.0951,0.0957,0.0969,0.0978,0.0983,0.0978,0.0986,0.098,0.0973,0.0976,0.0975,0.0975,0.0973,0.0973,0.098,0.098,0.098,0,0.0863,0.0871,0.0884,0.0888,0.0894,0.0908,0.0911,0.0918,0.0931,0.0936,0.0939,0.0956,0.0965,0.0972,0.0971,0.0975,0.0977,0.0978,0.0974,0.0974,0.0973,0.0972,0.0972,0.0979,0.0979,0.0979,0.0979,0,0.0858,0.0863,0.0864,0.0877,0.0883,0.0886,0.09,0.0905,0.0913,0.0922,0.093,0.0941,0.0952,0.0954,0.0962,0.0963,0.0965,0.0972,0.0978,0.0971,0.0971,0.097,0.0978,0.0978,0.0978,0.0979,0,0,0.0835,0.0856,0.0856,0.0863,0.0878,0.0883,0.0888,0.0899,0.0903,0.0913,0.0918,0.0929,0.0935,0.0942,0.0951,0.0954,0.0951,0.096,0.0961,0.0959,0.0954,0.0949,0.0949,0.0956,0.0956,0.0956,0.0954,0,0.0826,0.0835,0.0848,0.0853,0.0859,0.0873,0.0878,0.0888,0.0898,0.0905,0.0916,0.0923,0.0931,0.0935,0.0939,0.095,0.095,0.095,0.0962,0.0962,0.0959,0.0948,0.0943,0.094,0.0953,0.0953,0.0953,0,0.0817,0.0827,0.0833,0.0849,0.0852,0.0856,0.0867,0.0874,0.0887,0.0893,0.0902,0.0912,0.0919,0.0926,0.0937,0.0937,0.0943,0.0949,0.0949,0.0951,0.0957,0.095,0.0939,0.0938,0.0953,0.0953,0.0953,0,0.0801,0.0815,0.0821,0.0826,0.0845,0.0848,0.0856,0.0869,0.0875,0.0886,0.089,0.0901,0.0908,0.0917,0.093,0.0934,0.0941,0.0947,0.0947,0.0947,0.0947,0.0947,0.0937,0.0951,0.0951,0.0951,0.0951,0,0.079,0.0793,0.0814,0.0817,0.0822,0.0837,0.0841,0.0851,0.0863,0.0869,0.0882,0.0888,0.0906,0.0914,0.0925,0.0933,0.0936,0.0942,0.0945,0.0941,0.0941,0.0945,0.0946,0.0951,0.0951,0.0951,0.0951,0,0.0772,0.0786,0.0793,0.0811,0.0816,0.0818,0.0834,0.0839,0.0849,0.0858,0.086,0.0877,0.0888,0.0903,0.0918,0.0926,0.0933,0.0937,0.0928,0.093,0.0929,0.0929,0.0922,0.0922,0.0935,0.0935,0.0935,0,0.0764,0.0767,0.0786,0.0791,0.0799,0.0807,0.0814,0.0829,0.0836,0.0852,0.0855,0.0867,0.0877,0.0894,0.0908,0.0921,0.0926,0.0922,0.0927,0.0924,0.0926,0.0926,0.0927,0.0921,0.0921,0.092,0.092,0,0.0749,0.0756,0.0765,0.0777,0.0785,0.0795,0.0806,0.081,0.0828,0.0835,0.0846,0.0854,0.0871,0.0883,0.0897,0.0907,0.0917,0.0919,0.0919,0.0915,0.091,0.0914,0.0925,0.0919,0.0919,0.0919,0.0919,0.0919,0.0737,0.074,0.0754,0.0764,0.0774,0.0785,0.079,0.0802,0.0812,0.0826,0.0835,0.0847,0.0861,0.0882,0.0891,0.0901,0.0905,0.0906,0.0906,0.0906,0.0905,0.0909,0.0904,0.0904,0.0904,0.0904,0.0904,0,0.0723,0.0733,0.0742,0.0757,0.0766,0.0775,0.0788,0.0794,0.0804,0.0817,0.0827,0.0841,0.0853,0.0869,0.0883,0.0888,0.0893,0.0891,0.0891,0.0893,0.09,0.0899,0.0887,0.0887,0.0887,0.0887,0.0887,0.0887,0.0717,0.0724,0.0733,0.0746,0.0757,0.0768,0.0774,0.0785,0.0795,0.081,0.082,0.0831,0.0845,0.0861,0.0873,0.0878,0.0882,0.0879,0.0885,0.0891,0.0893,0.0894,0.0893,0.088,0.088,0.0878,0.0878,0.0877]},{"header":{"parameterUnit":"m.s-1","parameterCategory":1,"la1":30.2991,"la2":30.254,"lo1":-89.0895,"lo2":-89.0444,"dy":0.0017,"dx":0.0017,"nx":28,"ny":28,"refTime":"2026-02-16T03:00:00:Z","depth":0,"parameterNumber":3,"parameterNumberName":"V-component_of_WINDS"},"data":[0,0,0,0,0,0,0,0,0,0,0,0,0,0,0,0,0,0,0,0,0,0,0,0,0,0,0,0,0,0,0,0,0,0,0,0,0,0,0,0,0,0,0,0,0,0,0,0,0,0,0,0,0,0,0,0,0,0,-5.2142,-5.2142,0,-5.2222,-5.2223,-5.2224,-5.2175,-5.2173,-5.217,-5.2168,-5.2245,-5.2249,-5.2253,0,0,0,0,0,0,0,0,0,0,0,0,0,-5.194,-5.1944,-5.2141,-5.2143,-5.2144,-5.2222,-5.2223,-5.2224,-5.2175,-5.2173,-5.217,-5.2167,-5.2244,-5.2249,-5.2254,0,0,0,0,0,0,0,0,0,0,0,0,0,-5.2025,-5.1946,-5.2141,-5.2129,-5.2129,-5.2222,-5.2223,-5.2224,-5.2176,-5.2173,-5.2169,-5.2166,-5.2242,-5.2248,-5.2255,-5.2363,0,0,-5.2274,-5.2277,0,0,0,0,0,0,0,0,-5.202,-5.2032,-5.213,-5.213,-5.213,-5.2185,-5.218,-5.2271,-5.2177,-5.2158,-5.2168,-5.2164,-5.2228,-5.2235,-5.2257,-5.2367,-5.237,-5.2274,-5.2278,-5.2281,-5.2283,0,0,0,0,0,0,0,-5.2014,-5.2029,-5.2173,-5.2131,-5.2131,-5.2118,-5.2126,-5.2197,-5.2211,-5.2159,-5.2156,-5.2166,-5.2227,-5.2252,-5.2259,-5.2371,-5.2274,-5.228,-5.2284,-5.2286,-5.2573,-5.2577,0,0,0,0,0,0,-5.201,-5.2024,-5.2171,-5.2176,-5.2066,-5.2124,-5.2133,-5.2171,-5.221,-5.2213,-5.2169,-5.2164,-5.2242,-5.2252,-5.2261,-5.2391,-5.2281,-5.2287,-5.229,-5.2569,-5.2574,-5.2578,0,0,0,0,0,0,-5.2006,-5.2024,-5.2167,-5.2099,-5.2116,-5.2131,-5.2174,-5.2174,-5.2199,-5.2218,-5.2219,-5.2192,-5.224,-5.2253,-5.2339,-5.2393,-5.229,-5.2295,-5.2565,-5.2571,-5.2576,-5.2652,0,0,0,0,0,0,-5.2001,-5.2023,-5.2065,-5.21,-5.212,-5.2245,-5.2177,-5.2178,-5.221,-5.2204,-5.224,-5.2242,-5.2238,-5.2329,-5.2345,-5.24,-5.23,-5.256,-5.2567,-5.2574,-5.2645,-5.2659,-5.2672,0,0,0,0,0,-5.1994,-5.2082,-5.2068,-5.2085,-5.2174,-5.2248,-5.2259,-5.2254,-5.2215,-5.2257,-5.2269,-5.2241,-5.2385,-5.2339,-5.2356,-5.2414,-5.2556,-5.2565,-5.2574,-5.2638,-5.2657,-5.2672,0,0,0,0,0,0,-5.205,-5.2086,-5.2071,-5.2173,-5.2209,-5.224,-5.2293,-5.2274,-5.2319,-5.2311,-5.2301,-5.231,-5.24,-5.2415,-5.2363,-5.2521,-5.2464,-5.2477,-5.2508,-5.2525,-5.2539,-5.2533,-5.2306,0,0,0,0,0,-5.2075,-5.2134,-5.2162,-5.225,-5.2268,-5.2278,-5.231,-5.2303,-5.2338,-5.2352,-5.2371,-5.2404,-5.2457,-5.2492,-5.2541,-5.2646,-5.2653,-5.2695,-5.2709,-5.272,-5.2731,-5.2788,-5.2806,-5.2607,-5.2606,-5.2606,0,0,-5.2126,-5.2153,-5.2191,-5.2262,-5.2288,-5.2348,-5.229,-5.2356,-5.24,-5.2361,-5.2445,-5.2459,-5.2496,-5.2593,-5.2636,-5.2608,-5.2787,-5.2731,-5.274,-5.2744,-5.2798,-5.2817,-5.2834,-5.2612,-5.2611,-5.261,0,0,-5.225,-5.2277,-5.2354,-5.2382,-5.2423,-5.2429,-5.2448,-5.2482,-5.2491,-5.2575,-5.2548,-5.2599,-5.269,-5.2717,-5.2743,-5.2879,-5.2855,-5.2895,-5.2968,-5.3023,-5.3039,-5.3053,-5.3101,-5.3119,-5.2906,-5.2906,-5.2906,0,-5.2308,-5.24,-5.2395,-5.2464,-5.2495,-5.2465,-5.2542,-5.2569,-5.2624,-5.2645,-5.2614,-5.2728,-5.2751,-5.2853,-5.2887,-5.2909,-5.2929,-5.2891,-5.3038,-5.3051,-5.3064,-5.311,-5.3129,-5.2911,-5.291,-5.291,-5.2909,0,-5.2469,-5.2532,-5.2589,-5.2645,-5.2683,-5.2755,-5.276,-5.2799,-5.2789,-5.2798,-5.2883,-5.291,-5.2964,-5.2988,-5.2978,-5.3089,-5.3071,-5.3039,-5.2982,-5.3088,-5.3131,-5.3149,-5.2918,-5.2916,-5.2914,-5.2913,0,0,-5.263,-5.2684,-5.2705,-5.273,-5.2774,-5.2823,-5.2893,-5.2948,-5.2982,-5.302,-5.3079,-5.3157,-5.3128,-5.3158,-5.3151,-5.32,-5.3306,-5.3161,-5.3162,-5.3187,-5.343,-5.3454,-5.3474,-5.329,-5.3293,-5.3296,-5.3427,0,-5.2757,-5.2883,-5.2881,-5.2997,-5.3055,-5.3028,-5.3089,-5.3122,-5.3132,-5.3182,-5.3192,-5.3248,-5.3206,-5.3223,-5.3271,-5.3283,-5.3354,-5.3273,-5.3343,-5.3345,-5.3335,-5.3497,-5.3522,-5.3645,-5.3443,-5.3446,-5.3448,0,-5.2922,-5.2969,-5.3091,-5.3128,-5.3152,-5.3208,-5.3259,-5.3307,-5.3343,-5.3347,-5.3381,-5.3367,-5.3437,-5.3378,-5.3474,-5.342,-5.3448,-5.3458,-5.3463,-5.3469,-5.3403,-5.3507,-5.3683,-5.3702,-5.3475,-5.3473,-5.3471,0,-5.3028,-5.3121,-5.3207,-5.3229,-5.3274,-5.3313,-5.3333,-5.3366,-5.34,-5.3444,-5.3466,-5.3516,-5.3544,-5.3583,-5.3582,-5.354,-5.368,-5.3621,-5.3684,-5.3684,-5.3714,-5.3712,-5.3898,-5.3733,-5.3732,-5.3732,-5.3732,0,-5.317,-5.3246,-5.3255,-5.3308,-5.3392,-5.3388,-5.3471,-5.3487,-5.3517,-5.3571,-5.3549,-5.36,-5.3596,-5.3647,-5.3647,-5.3726,-5.3739,-5.3743,-5.3742,-5.3745,-5.3745,-5.3763,-5.3755,-5.3737,-5.3736,-5.3735,-5.3734,0,-5.3302,-5.3312,-5.3403,-5.3439,-5.3449,-5.351,-5.3539,-5.3588,-5.3597,-5.3666,-5.3681,-5.3695,-5.3754,-5.3757,-5.3824,-5.3824,-5.3921,-5.391,-5.3909,-5.3907,-5.397,-5.3965,-5.4174,-5.4201,-5.4019,-5.402,-5.4022,0,-5.3393,-5.3451,-5.3493,-5.3529,-5.3552,-5.361,-5.3645,-5.3643,-5.368,-5.3727,-5.377,-5.3828,-5.3873,-5.3969,-5.3983,-5.4034,-5.4025,-5.4095,-5.4032,-5.4034,-5.4026,-5.4023,-5.4028,-5.4107,-5.4109,-5.411,-5.4112,0,-5.3552,-5.3554,-5.3606,-5.3661,-5.3704,-5.3746,-5.3785,-5.3815,-5.3818,-5.3861,-5.3922,-5.3958,-5.4028,-5.4085,-5.4135,-5.4153,-5.4133,-5.4131,-5.4149,-5.4152,-5.415,-5.4152,-5.3943,-5.4126,-5.4125,-5.4124,-5.4123,-5.4122,-5.3666,-5.3717,-5.3755,-5.3814,-5.3844,-5.3882,-5.393,-5.3946,-5.3998,-5.4056,-5.4051,-5.4119,-5.4154,-5.422,-5.4242,-5.4294,-5.427,-5.4295,-5.4301,-5.4308,-5.4315,-5.4142,-5.4303,-5.4303,-5.4302,-5.4302,-5.4302,0,-5.3824,-5.3848,-5.3902,-5.396,-5.4006,-5.3985,-5.4027,-5.4067,-5.4128,-5.4163,-5.4209,-5.428,-5.4335,-5.4354,-5.4408,-5.4446,-5.4438,-5.446,-5.4457,-5.4461,-5.4333,-5.4313,-5.4465,-5.4465,-5.4465,-5.4465,-5.4465,-5.4465,-5.3912,-5.3997,-5.4004,-5.4103,-5.4126,-5.4194,-5.422,-5.4254,-5.4282,-5.4363,-5.441,-5.4423,-5.4451,-5.4507,-5.4556,-5.456,-5.4581,-5.4607,-5.4607,-5.4487,-5.447,-5.4455,-5.4436,-5.4612,-5.4612,-5.4731,-5.4733,-5.4733]}]]